Weather History for Auburn, AL

Change the Weather History Date:

Thursday, November 20, 2014

  Actual Average Record
Temperature  
Mean Temperature 48 °F -  
Max Temperature 61 °F - 80 °F (1985)
Min Temperature 34 °F - 25 °F (1968)
Degree Days  
Heating Degree Days 17    
Month to date heating degree days 336  
Since 1 July heating degree days 431  
Moisture  
Dew Point 32 °F    
Average Humidity 59    
Maximum Humidity 87    
Minimum Humidity 42    
Precipitation  
Precipitation 0.00 in - 3.10 in (1986)
Month to date precipitation 0.63  
Year to date precipitation 34.94  
Sea Level Pressure  
Sea Level Pressure 30.28 in    
Wind  
Wind Speed 5 mph (West)    
Max Wind Speed 14 mph    
Max Gust Speed 18 mph    
Visibility 10 miles    
Events      
T = Trace of Precipitation, MM = Missing Value Source: NWS Daily Summary

Daily Weather History Graph

Daily Weather History Graph

Search for Another Location

Airport:

Trip Planner

Search our weather history database for the weather conditions in past years. The results will help you decide how hot, cold, wet, or windy it might be!

Date:

Astronomy

Nov. 20, 2014 Rise Set
Actual Time 6:16 AM CST 4:38 PM CST
Civil Twilight 5:49 AM CST 5:04 PM CST
Nautical Twilight 5:19 AM CST 5:34 PM CST
Astronomical Twilight 4:50 AM CST 6:04 PM CST
Moon 4:17 AM CST 3:36 PM CST
Length of Visible Light 11h 15m
Length of Day
10h 22m
Waning Crescent, 4% of the Moon is Illuminated
Nov 20
Waning Crescent
Nov 22
New
Nov 29
First Quarter
Dec 6
Full
Dec 14
Last Quarter

Hourly Weather History & Observations

Time (CST) Temp. Windchill Dew Point Humidity Pressure Visibility Wind Dir Wind Speed Gust Speed Precip Events Conditions
12:15 AM 33.8 °F 28.6 °F 17.6 °F 52% 30.32 in 10.0 mi SW 5.8 mph - N/A   Clear
12:35 AM 33.8 °F 29.6 °F 17.6 °F 52% 30.32 in 10.0 mi SSW 4.6 mph - N/A   Clear
12:55 AM 33.8 °F 28.6 °F 17.6 °F 52% 30.31 in 10.0 mi SW 5.8 mph - N/A   Clear
1:15 AM 33.8 °F 28.6 °F 17.6 °F 52% 30.31 in 10.0 mi WSW 5.8 mph - N/A   Clear
1:35 AM 33.8 °F 29.6 °F 17.6 °F 52% 30.30 in 10.0 mi SW 4.6 mph - N/A   Clear
1:55 AM 33.8 °F 29.6 °F 17.6 °F 52% 30.30 in 10.0 mi WSW 4.6 mph - N/A   Clear
2:15 AM 33.8 °F 29.6 °F 17.6 °F 52% 30.30 in 10.0 mi WSW 4.6 mph - N/A   Clear
2:35 AM 33.8 °F 29.6 °F 19.4 °F 56% 30.29 in 10.0 mi SW 4.6 mph - N/A   Clear
2:55 AM 33.8 °F 30.8 °F 19.4 °F 56% 30.29 in 10.0 mi SW 3.5 mph - N/A   Clear
3:15 AM 33.8 °F 30.8 °F 19.4 °F 56% 30.28 in 10.0 mi West 3.5 mph - N/A   Clear
3:35 AM 33.8 °F 29.6 °F 19.4 °F 56% 30.28 in 10.0 mi WSW 4.6 mph - N/A   Clear
3:55 AM 33.8 °F - 19.4 °F 56% 30.28 in 10.0 mi Calm Calm - N/A   Clear
4:15 AM 33.8 °F - 19.4 °F 56% 30.28 in 10.0 mi Calm Calm - N/A   Clear
4:35 AM 33.8 °F - 19.4 °F 56% 30.28 in 10.0 mi Calm Calm - N/A   Clear
4:55 AM 33.8 °F 30.8 °F 19.4 °F 56% 30.28 in 10.0 mi West 3.5 mph - N/A   Clear
5:15 AM 33.8 °F 30.8 °F 19.4 °F 56% 30.28 in 10.0 mi West 3.5 mph - N/A   Clear
5:35 AM 35.6 °F 31.7 °F 19.4 °F 52% 30.28 in 10.0 mi West 4.6 mph - N/A   Clear
5:55 AM 35.6 °F 29.9 °F 21.2 °F 56% 30.28 in 10.0 mi WNW 6.9 mph - N/A   Clear
6:15 AM 35.6 °F 32.8 °F 19.4 °F 52% 30.28 in 10.0 mi WNW 3.5 mph - N/A   Clear
6:35 AM 35.6 °F 32.8 °F 19.4 °F 52% 30.29 in 10.0 mi West 3.5 mph - N/A   Clear
6:55 AM 35.6 °F 32.8 °F 21.2 °F 56% 30.29 in 10.0 mi West 3.5 mph - N/A   Clear
7:15 AM 37.4 °F 34.9 °F 23.0 °F 56% 30.30 in 10.0 mi West 3.5 mph - N/A   Clear
7:35 AM 39.2 °F 37.0 °F 24.8 °F 56% 30.31 in 10.0 mi WSW 3.5 mph - N/A   Clear
7:55 AM 41.0 °F 38.0 °F 26.6 °F 57% 30.31 in 10.0 mi West 4.6 mph - N/A   Clear
8:15 AM 44.6 °F 40.7 °F 30.2 °F 57% 30.32 in 10.0 mi West 6.9 mph - N/A   Clear
8:35 AM 44.6 °F 39.2 °F 32.0 °F 61% 30.32 in 10.0 mi West 10.4 mph - N/A   Clear
8:55 AM 46.4 °F 42.4 °F 33.8 °F 62% 30.32 in 10.0 mi WNW 8.1 mph - N/A   Clear
9:15 AM 46.4 °F 41.5 °F 33.8 °F 62% 30.32 in 10.0 mi WNW 10.4 mph - N/A   Scattered Clouds
9:35 AM 48.2 °F - 35.6 °F 62% 30.32 in 10.0 mi West 5.8 mph - N/A   Partly Cloudy
9:55 AM 51.8 °F - 35.6 °F 54% 30.32 in 10.0 mi WNW 6.9 mph - N/A   Clear
10:15 AM 51.8 °F - 37.4 °F 58% 30.31 in 10.0 mi WNW 8.1 mph - N/A   Clear
10:35 AM 53.6 °F - 39.2 °F 58% 30.30 in 10.0 mi WNW 6.9 mph - N/A   Clear
10:55 AM 55.4 °F - 39.2 °F 54% 30.30 in 10.0 mi WNW 9.2 mph 17.3 mph N/A   Clear
11:15 AM 55.4 °F - 41.0 °F 58% 30.29 in 10.0 mi WNW 8.1 mph - N/A   Clear
11:35 AM 57.2 °F - 39.2 °F 51% 30.28 in 10.0 mi NW 11.5 mph 16.1 mph N/A   Clear
11:55 AM 57.2 °F - 39.2 °F 51% 30.27 in 10.0 mi NW 13.8 mph 17.3 mph N/A   Clear
12:15 PM 59.0 °F - 39.2 °F 48% 30.26 in 10.0 mi NW 8.1 mph - N/A   Clear
12:35 PM 60.8 °F - 39.2 °F 45% 30.25 in 10.0 mi West 10.4 mph 18.4 mph N/A   Clear
12:55 PM 59.0 °F - 39.2 °F 48% 30.24 in 10.0 mi WNW 11.5 mph 18.4 mph N/A   Clear
1:15 PM 60.8 °F - 37.4 °F 42% 30.24 in 10.0 mi West 11.5 mph 18.4 mph N/A   Clear
1:35 PM 59.0 °F - 39.2 °F 48% 30.23 in 10.0 mi West 10.4 mph - N/A   Clear
1:55 PM 60.8 °F - 37.4 °F 42% 30.23 in 10.0 mi WNW 10.4 mph 16.1 mph N/A   Clear
2:15 PM 60.8 °F - 37.4 °F 42% 30.23 in 10.0 mi WSW 15.0 mph 18.4 mph N/A   Clear
2:35 PM 60.8 °F - 39.2 °F 45% 30.22 in 10.0 mi WNW 11.5 mph 16.1 mph N/A   Clear
2:55 PM 59.0 °F - 39.2 °F 48% 30.22 in 10.0 mi NW 11.5 mph - N/A   Clear
3:15 PM 57.2 °F - 39.2 °F 51% 30.22 in 10.0 mi WNW 8.1 mph - N/A   Clear
3:35 PM 57.2 °F - 39.2 °F 51% 30.23 in 10.0 mi WNW 5.8 mph - N/A   Clear
3:55 PM 57.2 °F - 39.2 °F 51% 30.23 in 10.0 mi West 5.8 mph - N/A   Clear
4:15 PM 55.4 °F - 39.2 °F 54% 30.23 in 10.0 mi West 4.6 mph - N/A   Clear
4:35 PM 55.4 °F - 39.2 °F 54% 30.24 in 10.0 mi WSW 4.6 mph - N/A   Clear
4:55 PM 53.6 °F - 39.2 °F 58% 30.25 in 10.0 mi West 3.5 mph - N/A   Clear
5:15 PM 53.6 °F - 39.2 °F 58% 30.25 in 10.0 mi Calm Calm - N/A   Clear
5:35 PM 53.6 °F - 39.2 °F 58% 30.25 in 10.0 mi WSW 3.5 mph - N/A   Clear
5:55 PM 53.6 °F - 39.2 °F 58% 30.26 in 10.0 mi WSW 3.5 mph - N/A   Clear
6:15 PM 53.6 °F - 39.2 °F 58% 30.26 in 10.0 mi WSW 3.5 mph - N/A   Clear
6:35 PM 51.8 °F - 39.2 °F 62% 30.26 in 10.0 mi Calm Calm - N/A   Clear
6:55 PM 48.2 °F - 39.2 °F 71% 30.26 in 10.0 mi Calm Calm - N/A   Clear
7:15 PM 48.2 °F - 39.2 °F 71% 30.26 in 10.0 mi Calm Calm - N/A   Clear
7:35 PM 46.4 °F - 39.2 °F 76% 30.27 in 10.0 mi Calm Calm - N/A   Clear
7:55 PM 46.4 °F - 39.2 °F 76% 30.27 in 10.0 mi Calm Calm - N/A   Clear
8:15 PM 46.4 °F - 37.4 °F 71% 30.27 in 10.0 mi Calm Calm - N/A   Clear
8:35 PM 46.4 °F - 39.2 °F 76% 30.27 in 10.0 mi Calm Calm - N/A   Clear
8:55 PM 44.6 °F - 37.4 °F 76% 30.28 in 10.0 mi Calm Calm - N/A   Partly Cloudy
9:15 PM 44.6 °F - 37.4 °F 76% 30.28 in 10.0 mi Calm Calm - N/A   Clear
9:35 PM 46.4 °F - 39.2 °F 76% 30.28 in 10.0 mi Calm Calm - N/A   Clear
9:55 PM 46.4 °F - 37.4 °F 71% 30.29 in 10.0 mi Calm Calm - N/A   Clear
10:15 PM 46.4 °F - 39.2 °F 76% 30.29 in 10.0 mi Calm Calm - N/A   Clear
10:35 PM 46.4 °F - 39.2 °F 76% 30.29 in 10.0 mi Calm Calm - N/A   Clear
10:55 PM 44.6 °F - 37.4 °F 76% 30.28 in 10.0 mi Calm Calm - N/A   Clear
11:15 PM 42.8 °F - 37.4 °F 81% 30.29 in 10.0 mi Calm Calm - N/A   Partly Cloudy
11:35 PM 41.0 °F - 37.4 °F 87% 30.29 in 10.0 mi Calm Calm - N/A   Partly Cloudy
11:55 PM 42.8 °F - 37.4 °F 81% 30.29 in 10.0 mi Calm Calm - N/A   Clear